STARLINK-31870, 59787

Orbit data source: Space-Track

STARLINK-31870, 59787 is a payload satellite owned by SpaceX/Seattle (US) in LEO that was launched on Sat, 18 May 2024 UTC via an FALCON 9 launch vehicle from the Air Force Eastern Test Range (AFETR). Payload-class satellites include a variety of spacecraft equipped with specific instruments for various scientific and technological missions. These include communications satellites like Starlink; space stations such as the ISS; scientific satellites like the Hubble; Earth observation satellites from companies like Planet Labs, Umbra, and HawkEye 360; GPS; miniature CubeSats for education and research; and military/defense satellites.

Loading next visibility...
Identifier
59787, 2024-093F
Orbit
LEO
Country
Flag of USUS
Related business
Manufacturer
SpaceX/Seattle
Mission
Operational Commercial Communications
Bus & Motor
STARLINK V2M, Unknown motor
Mass
730 kg wet, ~700 kg dry
Launch date (UTC)
2024-05-18 (2 years ago)
Launch vehicle
FALCON 9
Launch site
Air Force Eastern Test Range (AFETR)
Object type
Payload
Rocket body
Debris
Shape & HBR
Box + 2 Pan, 17.7 m
Radar Cross Section
33.884 m², Large (>1 m²)

Expand to show TLE details & history
Last TLE update: 13 hours ago

TLE from 13 hours ago
0 STARLINK-31870
1 59787U 24093F   26168.88628979  .00001695  00000-0  71088-4 0  9993
2 59787  43.0018   2.6590 0001369 286.0415  74.0285 15.27582277118025
Epoch: 2026-06-17T21:16Z
TLE epoch observation values (Epoch: 2026-06-17T21:16:15.437Z)
Latitude
-0.00009°
Longitude
137.45704°
Altitude
482.56 km
Speed
7.626 km/s
True Right ascension
00h 10m 38s
True Declination
0° 00' 00"
Sunlit
Object was in daylight at epoch
Visualization orbit readout
Latitude
Unknown
Longitude
Unknown
Altitude
Unknown
Speed
Unknown
Apparent Right ascension
Unknown
Apparent Declination
Unknown
Sunlit
N/A
Visualization observer readout
Local Sidereal Time
21:25:55
Azimuth
Unknown
Elevation
Unknown
Doppler factor
Unknown
Orbital elements
Apogee altitude
485.927 km
Perigee altitude
484.048 km
Semi-major axis
6,863.124 km
Eccentricity
0.00014
Inclination
43.0018°
RAAN
2.659°
Arg. of periapsis
286.0415°
True anomaly
74.04358°
Mean anomaly
74.0285°
Eccentric anomaly
74.03604°
Mean motion
3.81734 °/min
Orbital period
94.31 mins
BSTAR
0.000071088
Loading maneuver chart data...
Computing Atmospheric mass density...
Loading historical data...
Loading historical data...
Loading historical data...
Loading historical data...
Loading historical data...
Loading historical data...
Loading historical data...

Documentation

Showing up to 5 results
|